Location: Kuppenheim
(48.8299°N, 8.2568°E)
Time: 07:52:40
(UTC+00:00)

ERBS - Pass Details

Date: 25 October 2021
Orbit: 393 x 407 km, 57.0° (Epoch: 30 November)

Event Time Altitude Azimuth Distance (km) Brightness Sun altitude
Exits shadow 04:02:20 - 176° (S) 1,895 5.6 -20.4°
Reaches altitude 10° 04:04:01 10° 156° (SSE) 1,451 5.2 -20.1°
Maximum altitude 04:05:36 13° 126° (SE) 1,288 5.4 -19.9°
Drops below altitude 10° 04:07:11 10° 97° (E) 1,462 6.2 -19.6°
Sets 04:10:06 0° 68° (ENE) 2,333 7.4 -19.1°
